Colwell, IA

12:20 AM CST on February 27, 2017 (GMT -0600)
Charles City Municipal

Weather History for KCCY - March, 2014

Change the Weather History Date:

Wednesday, March 12, 2014

  Actual Average Record
Temperature  
Mean Temperature 26 °F -  
Max Temperature 32 °F 40 °F 71 °F (1990)
Min Temperature 19 °F 24 °F -5 °F (1956)
Degree Days  
Heating Degree Days 40    
Moisture  
Dew Point 17 °F    
Average Humidity 73    
Maximum Humidity 86    
Minimum Humidity 64    
Precipitation  
Precipitation 0.00 in - - ()
Sea Level Pressure  
Sea Level Pressure 30.04 in    
Wind  
Wind Speed 17 mph (NNW)    
Max Wind Speed 24 mph    
Max Gust Speed 31 mph    
Visibility 10 miles    
Events      
Averages and records for this station are not official NWS values.
T = Trace of Precipitation, MM = Missing Value Source: NWS Daily Summary

Daily Weather History Graph

Daily Weather History Graph

Search for Another Location

Airport or City:

Trip Planner

Search our weather history database for the weather conditions in past years. The results will help you decide how hot, cold, wet, or windy it might be!

Date:

Astronomy

Mar. 12, 2014 Rise Set
Actual Time 7:27 AM CDT 7:13 PM CDT
Civil Twilight 6:59 AM CDT 7:41 PM CDT
Nautical Twilight 6:26 AM CDT 8:14 PM CDT
Astronomical Twilight 5:53 AM CDT 8:47 PM CDT
Moon 3:40 PM CDT (3/12) 5:04 AM CDT (3/12)
Length of Visible Light 12h 42m
Length of Day
11h 45m
Waxing Gibbous, 85% of the Moon is Illuminated
Mar 12
Waxing Gibbous
Mar 16
Full
Mar 23
Last Quarter
Mar 30
New
Apr 7
First Quarter

Hourly Weather History & Observations

Time (CDT) Temp. Windchill Dew Point Humidity Pressure Visibility Wind Dir Wind Speed Gust Speed Precip Events Conditions
12:15 AM 32.0 °F 18.9 °F 21.2 °F 64% 29.91 in 10.0 mi North 24.2 mph 31.1 mph N/A   Clear
12:35 AM 32.0 °F 20.1 °F 23.0 °F 69% 29.93 in 10.0 mi NNW 19.6 mph - N/A   Clear
12:55 AM 30.2 °F 16.8 °F 21.2 °F 69% 29.93 in 10.0 mi NNW 23.0 mph - N/A   Clear
1:15 AM 30.2 °F 18.1 °F 21.2 °F 69% 29.94 in 10.0 mi North 18.4 mph 27.6 mph N/A   Clear
1:35 AM 30.2 °F 17.4 °F 21.2 °F 69% 29.94 in 10.0 mi North 20.7 mph - N/A   Clear
1:55 AM 30.2 °F 17.1 °F 19.4 °F 64% 29.94 in 10.0 mi North 21.9 mph 28.8 mph N/A   Clear
2:15 AM 28.4 °F 15.8 °F 19.4 °F 69% 29.95 in 10.0 mi NNW 18.4 mph 25.3 mph N/A   Clear
2:35 AM 28.4 °F 16.2 °F 19.4 °F 69% 29.95 in 10.0 mi NNW 17.3 mph 25.3 mph N/A   Clear
2:55 AM 28.4 °F 15.8 °F 19.4 °F 69% 29.96 in 10.0 mi NNW 18.4 mph - N/A   Clear
3:15 AM 26.6 °F 14.3 °F 19.4 °F 74% 29.96 in 10.0 mi NNW 16.1 mph - N/A   Clear
3:35 AM 26.6 °F 14.3 °F 19.4 °F 74% 29.95 in 10.0 mi NNW 16.1 mph - N/A   Clear
3:55 AM 26.6 °F 14.3 °F 19.4 °F 74% 29.95 in 10.0 mi NNW 16.1 mph - N/A   Clear
4:15 AM 24.8 °F 11.5 °F 19.4 °F 80% 29.96 in 10.0 mi NW 17.3 mph - N/A   Clear
4:35 AM 24.8 °F 12.4 °F 19.4 °F 80% 29.96 in 10.0 mi NNW 15.0 mph - N/A   Clear
4:55 AM 24.8 °F 10.3 °F 19.4 °F 80% 29.97 in 10.0 mi NNW 20.7 mph - N/A   Clear
5:15 AM 24.8 °F 10.7 °F 17.6 °F 74% 29.98 in 10.0 mi NNW 19.6 mph 25.3 mph N/A   Clear
5:35 AM 24.8 °F 10.7 °F 19.4 °F 80% 29.99 in 10.0 mi NW 19.6 mph - N/A   Clear
5:55 AM 24.8 °F 10.3 °F 17.6 °F 74% 30.00 in 10.0 mi NNW 20.7 mph - N/A   Clear
6:15 AM 23.0 °F 8.0 °F 17.6 °F 80% 30.01 in 10.0 mi NNW 20.7 mph - N/A   Clear
6:35 AM 23.0 °F 8.7 °F 17.6 °F 80% 30.01 in 10.0 mi NNW 18.4 mph - N/A   Clear
6:55 AM 23.0 °F 9.2 °F 15.8 °F 74% 30.02 in 10.0 mi NNW 17.3 mph - N/A   Clear
7:15 AM 21.2 °F 7.3 °F 15.8 °F 80% 30.02 in 10.0 mi NW 16.1 mph - N/A   Clear
7:35 AM 21.2 °F 6.8 °F 14.0 °F 74% 30.02 in 10.0 mi NW 17.3 mph - N/A   Clear
7:55 AM 21.2 °F 7.3 °F 14.0 °F 74% 30.02 in 10.0 mi NW 16.1 mph - N/A   Clear
8:15 AM 21.2 °F 6.4 °F 14.0 °F 74% 30.03 in 10.0 mi NW 18.4 mph - N/A   Clear
8:35 AM 21.2 °F 6.0 °F 14.0 °F 74% 30.04 in 10.0 mi NW 19.6 mph 25.3 mph N/A   Clear
8:55 AM 21.2 °F 6.0 °F 14.0 °F 74% 30.05 in 10.0 mi NNW 19.6 mph 26.5 mph N/A   Clear
9:15 AM 21.2 °F 6.0 °F 14.0 °F 74% 30.05 in 10.0 mi NNW 19.6 mph 25.3 mph N/A   Clear
9:35 AM 21.2 °F 5.2 °F 14.0 °F 74% 30.06 in 10.0 mi NNW 21.9 mph - N/A   Clear
9:55 AM 21.2 °F 5.2 °F 14.0 °F 74% 30.07 in 10.0 mi NNW 21.9 mph - N/A   Clear
10:15 AM 21.2 °F 6.8 °F 14.0 °F 74% 30.08 in 10.0 mi NNW 17.3 mph 26.5 mph N/A   Clear
10:35 AM 23.0 °F 8.3 °F 15.8 °F 74% 30.08 in 10.0 mi NNW 19.6 mph 25.3 mph N/A   Clear
10:55 AM 23.0 °F 8.0 °F 14.0 °F 68% 30.08 in 10.0 mi NNW 20.7 mph - N/A   Clear
11:15 AM 23.0 °F 9.2 °F 15.8 °F 74% 30.08 in 10.0 mi NNW 17.3 mph - N/A   Clear
11:35 AM 23.0 °F 8.7 °F 14.0 °F 68% 30.07 in 10.0 mi NNW 18.4 mph 24.2 mph N/A   Clear
11:55 AM 23.0 °F 8.3 °F 15.8 °F 74% 30.08 in 10.0 mi NNW 19.6 mph - N/A   Clear
12:15 PM 24.8 °F 11.1 °F 15.8 °F 69% 30.09 in 10.0 mi NNW 18.4 mph - N/A   Clear
12:35 PM 23.0 °F 9.6 °F 15.8 °F 74% 30.09 in 10.0 mi NNW 16.1 mph - N/A   Clear
1:15 PM 24.8 °F 12.9 °F 17.6 °F 74% 30.09 in 10.0 mi NNW 13.8 mph 19.6 mph N/A   Clear
1:35 PM 24.8 °F 11.9 °F 17.6 °F 74% 30.09 in 10.0 mi NW 16.1 mph - N/A   Partly Cloudy
1:55 PM 24.8 °F 12.4 °F 17.6 °F 74% 30.08 in 10.0 mi NW 15.0 mph - N/A   Scattered Clouds
2:15 PM 26.6 °F 15.2 °F 17.6 °F 69% 30.08 in 10.0 mi NNW 13.8 mph - N/A   Partly Cloudy
2:35 PM 24.8 °F 11.5 °F 17.6 °F 74% 30.08 in 10.0 mi NW 17.3 mph - N/A   Clear
2:55 PM 26.6 °F 14.7 °F 17.6 °F 69% 30.08 in 10.0 mi NNW 15.0 mph - N/A   Partly Cloudy
3:15 PM 26.6 °F 15.7 °F 17.6 °F 69% 30.09 in 10.0 mi NNW 12.7 mph - N/A   Partly Cloudy
3:35 PM 26.6 °F 15.7 °F 17.6 °F 69% 30.08 in 10.0 mi NNW 12.7 mph - N/A   Scattered Clouds
3:55 PM 26.6 °F 15.7 °F 17.6 °F 69% 30.08 in 10.0 mi NNW 12.7 mph - N/A   Mostly Cloudy
4:15 PM 26.6 °F 15.7 °F 17.6 °F 69% 30.08 in 10.0 mi NNW 12.7 mph - N/A   Scattered Clouds
4:35 PM 26.6 °F 14.7 °F 17.6 °F 69% 30.08 in 10.0 mi NNW 15.0 mph - N/A   Clear
4:55 PM 26.6 °F 15.2 °F 17.6 °F 69% 30.09 in 10.0 mi NNW 13.8 mph - N/A   Clear
5:15 PM 26.6 °F 15.2 °F 15.8 °F 64% 30.09 in 10.0 mi NNW 13.8 mph - N/A   Clear
5:35 PM 26.6 °F 16.2 °F 15.8 °F 64% 30.09 in 10.0 mi NW 11.5 mph - N/A   Clear
5:55 PM 26.6 °F 17.5 °F 15.8 °F 64% 30.08 in 10.0 mi NNW 9.2 mph - N/A   Clear
6:15 PM 26.6 °F 17.5 °F 15.8 °F 64% 30.08 in 10.0 mi NNW 9.2 mph - N/A   Clear
6:35 PM 24.8 °F 16.1 °F 15.8 °F 69% 30.09 in 10.0 mi NNW 8.1 mph - N/A   Clear
6:55 PM 24.8 °F 17.9 °F 17.6 °F 74% 30.09 in 10.0 mi NNW 5.8 mph - N/A   Clear
7:15 PM 23.0 °F 15.8 °F 15.8 °F 74% 30.09 in 10.0 mi NNW 5.8 mph - N/A   Clear
7:35 PM 23.0 °F 17.0 °F 15.8 °F 74% 30.10 in 10.0 mi NNW 4.6 mph - N/A   Partly Cloudy
7:55 PM 23.0 °F 18.4 °F 15.8 °F 74% 30.10 in 10.0 mi NNW 3.5 mph - N/A   Mostly Cloudy
8:15 PM 24.8 °F 19.1 °F 15.8 °F 69% 30.10 in 10.0 mi NNW 4.6 mph - N/A   Overcast
8:35 PM 23.0 °F - 17.6 °F 80% 30.11 in 10.0 mi Calm Calm - N/A   Overcast
8:55 PM 23.0 °F - 17.6 °F 80% 30.11 in 10.0 mi Calm Calm - N/A   Mostly Cloudy
9:15 PM 24.8 °F - 15.8 °F 69% 30.10 in 10.0 mi Calm Calm - N/A   Mostly Cloudy
9:35 PM 23.0 °F - 17.6 °F 80% 30.10 in 10.0 mi Calm Calm - N/A   Clear
9:55 PM 23.0 °F - 15.8 °F 74% 30.10 in 10.0 mi Calm Calm - N/A   Clear
10:15 PM 21.2 °F - 15.8 °F 80% 30.09 in 10.0 mi Calm Calm - N/A   Clear
10:35 PM 21.2 °F - 15.8 °F 80% 30.09 in 10.0 mi Calm Calm - N/A   Clear
10:55 PM 19.4 °F 14.3 °F 15.8 °F 86% 30.09 in 10.0 mi East 3.5 mph - N/A   Clear
11:15 PM 19.4 °F 14.3 °F 15.8 °F 86% 30.09 in 10.0 mi ESE 3.5 mph - N/A   Clear
11:35 PM 19.4 °F 14.3 °F 15.8 °F 86% 30.08 in 10.0 mi ESE 3.5 mph - N/A   Partly Cloudy
11:55 PM 19.4 °F 12.8 °F 15.8 °F 86% 30.08 in 10.0 mi SE 4.6 mph - N/A   Clear